Carlsbad, CA

7:12 AM PST on January 23, 2018 (GMT -0800)
McClellan-Palomar

Weather History for KCRQ - February, 2013

Change the Weather History Date:

Saturday, February 9, 2013

  Actual Average Record
Temperature  
Mean Temperature 48 °F -  
Max Temperature 55 °F 60 °F 84 °F (2016)
Min Temperature 41 °F 46 °F 41 °F (2013)
Degree Days  
Heating Degree Days 17    
Moisture  
Dew Point 39 °F    
Average Humidity 69    
Maximum Humidity 89    
Minimum Humidity 47    
Precipitation  
Precipitation 0.00 in - - ()
Sea Level Pressure  
Sea Level Pressure 30.03 in    
Wind  
Wind Speed 4 mph (ESE)    
Max Wind Speed 8 mph    
Max Gust Speed -    
Visibility 10 miles    
Events      
Averages and records for this station are not official NWS values.
T = Trace of Precipitation, MM = Missing Value Source: NWS Daily Summary

Daily Weather History Graph

Daily Weather History Graph

Search for Another Location

Airport or City:

Trip Planner

Search our weather history database for the weather conditions in past years. The results will help you decide how hot, cold, wet, or windy it might be!

Date:

Astronomy

Feb. 09, 2013 Rise Set
Actual Time 6:38 AM PST 5:29 PM PST
Civil Twilight 6:12 AM PST 5:54 PM PST
Nautical Twilight 5:43 AM PST 6:23 PM PST
Astronomical Twilight 5:14 AM PST 6:52 PM PST
Moon 5:53 AM PST (2/9) 5:14 PM PST (2/9)
Length of Visible Light 11h 42m
Length of Day
10h 51m
Waning Crescent, 0% of the Moon is Illuminated
Feb 9
Waning Crescent
Feb 9
New
Feb 17
First Quarter
Feb 25
Full
Mar 4
Last Quarter

Hourly Weather History & Observations

Time (PST) Temp. Windchill Dew Point Humidity Pressure Visibility Wind Dir Wind Speed Gust Speed Precip Events Conditions
12:53 AM 44.1 °F 41.5 °F 39.0 °F 82% 29.94 in 10.0 mi East 4.6 mph - N/A   Scattered Clouds
1:53 AM 44.1 °F 41.5 °F 39.0 °F 82% 29.94 in 10.0 mi East 4.6 mph - N/A   Clear
2:53 AM 43.0 °F - 39.0 °F 86% 29.95 in 10.0 mi Calm Calm - N/A   Mostly Cloudy
3:53 AM 43.0 °F 41.3 °F 39.0 °F 86% 29.94 in 10.0 mi ESE 3.5 mph - N/A   Clear
4:53 AM 42.1 °F - 37.9 °F 85% 29.96 in 10.0 mi Calm Calm - N/A   Clear
5:53 AM 41.0 °F 38.0 °F 37.9 °F 89% 29.97 in 10.0 mi ESE 4.6 mph - N/A   Clear
6:53 AM 41.0 °F 39.0 °F 37.0 °F 86% 29.99 in 10.0 mi ESE 3.5 mph - N/A   Clear
7:53 AM 45.0 °F 43.5 °F 39.9 °F 82% 30.02 in 10.0 mi East 3.5 mph - N/A   Clear
8:53 AM 48.9 °F - 39.9 °F 71% 30.04 in 10.0 mi East 5.8 mph - N/A   Mostly Cloudy
9:53 AM 52.0 °F - 39.9 °F 63% 30.06 in 10.0 mi SE 5.8 mph - N/A   Scattered Clouds
10:53 AM 54.0 °F - 39.0 °F 57% 30.06 in 10.0 mi Variable 6.9 mph - N/A   Mostly Cloudy
11:53 AM 55.0 °F - 37.9 °F 53% 30.06 in 10.0 mi Variable 6.9 mph - N/A   Scattered Clouds
12:53 PM 55.0 °F - 37.0 °F 51% 30.04 in 10.0 mi West 6.9 mph - N/A   Scattered Clouds
1:53 PM 55.9 °F - 36.0 °F 47% 30.04 in 10.0 mi Variable 3.5 mph - N/A   Partly Cloudy
2:53 PM 55.0 °F - 36.0 °F 49% 30.04 in 10.0 mi SSW 8.1 mph - N/A   Partly Cloudy
3:53 PM 55.0 °F - 37.0 °F 51% 30.04 in 10.0 mi West 6.9 mph - N/A   Clear
4:53 PM 54.0 °F - 39.0 °F 57% 30.04 in 10.0 mi West 8.1 mph - N/A   Clear
5:53 PM 53.1 °F - 39.0 °F 59% 30.05 in 10.0 mi Calm Calm - N/A   Clear
6:53 PM 52.0 °F - 39.0 °F 61% 30.06 in 10.0 mi Calm Calm - N/A   Clear
7:53 PM 48.9 °F - 39.0 °F 69% 30.07 in 10.0 mi Calm Calm - N/A   Clear
8:53 PM 48.0 °F - 39.0 °F 71% 30.09 in 10.0 mi Calm Calm - N/A   Partly Cloudy
9:53 PM 46.9 °F - 39.0 °F 74% 30.10 in 10.0 mi ENE 4.6 mph - N/A   Clear
10:53 PM 48.0 °F - 39.0 °F 71% 30.10 in 10.0 mi East 4.6 mph - N/A   Overcast
11:53 PM 48.0 °F - 39.9 °F 74% 30.11 in 10.0 mi East 3.5 mph - 0.00 in   Overcast